Weather History for KSUE - October, 2010

Change the Weather History Date:

Friday, October 1, 2010

  Actual Average Record
Temperature  
Mean Temperature 52 °F -  
Max Temperature 62 °F 64 °F 84 °F (1971)
Min Temperature 42 °F 44 °F 27 °F (1918)
Degree Days  
Heating Degree Days 13    
Growing Degree Days 2 (Base 50)    
Moisture  
Dew Point 45 °F    
Average Humidity 80    
Maximum Humidity 93    
Minimum Humidity 48    
Precipitation  
Precipitation 0.28 in - - ()
Sea Level Pressure  
Sea Level Pressure 30.07 in    
Wind  
Wind Speed 1 mph (NNE)    
Max Wind Speed 16 mph    
Max Gust Speed 25 mph    
Visibility 10 miles    
Events Thunderstorm    
Averages and records for this station are not official NWS values.
T = Trace of Precipitation, MM = Missing Value Source: NWS Daily Summary

Daily Weather History Graph

Daily Weather History Graph

Search for Another Location

Airport or City:

Trip Planner

Search our weather history database for the weather conditions in past years. The results will help you decide how hot, cold, wet, or windy it might be!

Date:

Astronomy

Oct. 01, 2010 Rise Set
Actual Time 6:47 AM CDT 6:30 PM CDT
Civil Twilight 6:18 AM CDT 6:59 PM CDT
Nautical Twilight 5:44 AM CDT 7:33 PM CDT
Astronomical Twilight 5:09 AM CDT 8:07 PM CDT
Moon No Moon Rise 2:52 PM CDT (10/1)
Length of Visible Light 12h 40m
Length of Day
11h 42m
Last Quarter, 44% of the Moon is Illuminated
Oct 1
Last Quarter
Oct 7
New
Oct 14
First Quarter
Oct 22
Full
Oct 30
Last Quarter

Hourly Weather History & Observations

Time (CDT) Temp. Windchill Dew Point Humidity Pressure Visibility Wind Dir Wind Speed Gust Speed Precip Events Conditions
12:15 AM 46.4 °F - 42.8 °F 87% 30.06 in 10.0 mi Calm Calm - N/A   Clear
12:35 AM 44.6 °F - 42.8 °F 93% 30.06 in 10.0 mi Calm Calm - N/A   Clear
12:55 AM 44.6 °F - 42.8 °F 93% 30.06 in 10.0 mi Calm Calm - N/A   Clear
1:15 AM 44.6 °F - 42.8 °F 93% 30.06 in 10.0 mi Calm Calm - N/A   Clear
1:35 AM 44.6 °F - 42.8 °F 93% 30.06 in 10.0 mi Calm Calm - N/A   Clear
1:55 AM 44.6 °F - 42.8 °F 93% 30.06 in 10.0 mi Calm Calm - N/A   Clear
2:15 AM 44.6 °F - 42.8 °F 93% 30.06 in 10.0 mi Calm Calm - N/A   Clear
2:35 AM 44.6 °F - 42.8 °F 93% 30.06 in 10.0 mi Calm Calm - N/A   Clear
3:15 AM 44.6 °F - 41.0 °F 87% 30.06 in 10.0 mi Calm Calm - N/A   Clear
3:35 AM 44.6 °F - 42.8 °F 93% 30.07 in 10.0 mi Calm Calm - N/A   Clear
3:55 AM 46.4 °F 45.2 °F 42.8 °F 87% 30.07 in 10.0 mi West 3.5 mph - N/A   Clear
4:15 AM 44.6 °F - 42.8 °F 93% 30.08 in 10.0 mi Calm Calm - N/A   Clear
4:35 AM 44.6 °F - 42.8 °F 93% 30.08 in 10.0 mi Calm Calm - N/A   Clear
4:55 AM 44.6 °F - 42.8 °F 93% 30.08 in 10.0 mi Calm Calm - N/A   Clear
5:15 AM 42.8 °F 41.1 °F 41.0 °F 93% 30.08 in 10.0 mi SSW 3.5 mph - N/A   Clear
5:35 AM 44.6 °F - 41.0 °F 87% 30.08 in 10.0 mi Calm Calm - N/A   Clear
5:55 AM 44.6 °F - 42.8 °F 93% 30.08 in 8.0 mi Calm Calm - N/A   Clear
6:15 AM 44.6 °F - 41.0 °F 87% 30.08 in 1.8 mi Calm Calm - N/A   Clear
6:35 AM 42.8 °F - 41.0 °F 93% 30.08 in 10.0 mi Calm Calm - N/A   Clear
6:55 AM 42.8 °F - 41.0 °F 93% 30.07 in 10.0 mi Calm Calm - N/A   Clear
7:15 AM 44.6 °F - 42.8 °F 93% 30.09 in 10.0 mi Calm Calm - N/A   Clear
7:35 AM 44.6 °F 43.1 °F 42.8 °F 93% 30.08 in 10.0 mi SSW 3.5 mph - N/A   Mostly Cloudy
7:55 AM 46.4 °F - 44.6 °F 93% 30.09 in 10.0 mi Calm Calm - N/A   Overcast
8:15 AM 48.2 °F - 46.4 °F 93% 30.10 in 10.0 mi Calm Calm - N/A   Overcast
8:35 AM 51.8 °F - 48.2 °F 88% 30.09 in 10.0 mi Calm Calm - N/A   Overcast
8:55 AM 53.6 °F - 46.4 °F 77% 30.09 in 10.0 mi WSW 3.5 mph - N/A   Mostly Cloudy
9:15 AM 53.6 °F - 46.4 °F 77% 30.09 in 10.0 mi Calm Calm - N/A   Overcast
9:35 AM 53.6 °F - 48.2 °F 82% 30.09 in 10.0 mi Calm Calm - N/A   Overcast
9:55 AM 55.4 °F - 46.4 °F 72% 30.09 in 10.0 mi Calm Calm - N/A   Overcast
10:15 AM 55.4 °F - 48.2 °F 77% 30.11 in 10.0 mi Calm Calm - N/A   Overcast
10:35 AM 57.2 °F - 48.2 °F 72% 30.11 in 10.0 mi Calm Calm - N/A   Mostly Cloudy
10:55 AM 57.2 °F - 46.4 °F 67% 30.11 in 10.0 mi Calm Calm - N/A   Scattered Clouds
11:15 AM 59.0 °F - 46.4 °F 63% 30.10 in 10.0 mi WSW 3.5 mph - N/A   Clear
11:35 AM 59.0 °F - 46.4 °F 63% 30.10 in 10.0 mi Calm Calm - N/A   Scattered Clouds
11:55 AM 57.2 °F - 50.0 °F 77% 30.10 in 10.0 mi NNW 5.8 mph - N/A   Partly Cloudy
12:15 PM 57.2 °F - 50.0 °F 77% 30.09 in 10.0 mi NNW 3.5 mph - N/A   Clear
12:35 PM 60.8 °F - 48.2 °F 63% 30.08 in 10.0 mi North 3.5 mph - N/A   Clear
12:55 PM 59.0 °F - 50.0 °F 72% 30.08 in 10.0 mi NNE 5.8 mph - N/A   Clear
1:15 PM 60.8 °F - 46.4 °F 59% 30.07 in 10.0 mi North 4.6 mph - N/A   Clear
1:35 PM 60.8 °F - 44.6 °F 55% 30.07 in 10.0 mi NNW 5.8 mph - N/A   Clear
1:55 PM 60.8 °F - 44.6 °F 55% 30.06 in 10.0 mi North 5.8 mph - N/A   Clear
2:15 PM 60.8 °F - 44.6 °F 55% 30.06 in 10.0 mi NNW 3.5 mph - N/A   Clear
2:35 PM 60.8 °F - 42.8 °F 52% 30.06 in 10.0 mi Calm Calm - N/A   Mostly Cloudy
2:55 PM 62.6 °F - 42.8 °F 48% 30.05 in 10.0 mi Calm Calm - N/A   Overcast
3:15 PM 60.8 °F - 44.6 °F 55% 30.05 in 10.0 mi East 6.9 mph - N/A   Overcast
3:35 PM 59.0 °F - 46.4 °F 63% 30.05 in 10.0 mi East 4.6 mph - N/A   Overcast
3:55 PM 59.0 °F - 46.4 °F 63% 30.05 in 10.0 mi East 5.8 mph - N/A   Overcast
4:15 PM 59.0 °F - 46.4 °F 63% 30.05 in 10.0 mi East 4.6 mph - N/A   Overcast
4:35 PM 59.0 °F - 44.6 °F 59% 30.06 in 10.0 mi East 3.5 mph - N/A   Overcast
4:55 PM 57.2 °F - 46.4 °F 67% 30.06 in 10.0 mi Calm Calm - N/A Thunderstorm Overcast
5:15 PM 53.6 °F - 48.2 °F 82% 30.07 in 8.0 mi North 16.1 mph 25.3 mph 0.02 in Thunderstorm Thunderstorm
5:35 PM 51.8 °F - 48.2 °F 88% 30.08 in 7.0 mi NNE 8.1 mph - 0.13 in Thunderstorm Thunderstorm
5:55 PM 51.8 °F - 48.2 °F 88% 30.07 in 10.0 mi NNE 8.1 mph - 0.17 in   Overcast
6:15 PM 51.8 °F - 48.2 °F 88% 30.07 in 10.0 mi NE 6.9 mph - 0.02 in   Mostly Cloudy
6:35 PM 51.8 °F - 48.2 °F 88% 30.06 in 10.0 mi NNE 8.1 mph - 0.05 in   Overcast
6:55 PM 51.8 °F - 48.2 °F 88% 30.07 in 10.0 mi NNE 6.9 mph - 0.08 in   Overcast
7:15 PM 50.0 °F - 46.4 °F 87% 30.07 in 10.0 mi NNE 6.9 mph - 0.03 in   Overcast
7:35 PM 50.0 °F - 46.4 °F 87% 30.08 in 10.0 mi North 8.1 mph - 0.08 in   Mostly Cloudy
7:55 PM 50.0 °F - 46.4 °F 87% 30.09 in 10.0 mi NNE 11.5 mph - 0.12 in   Overcast
8:15 PM 50.0 °F - 44.6 °F 82% 30.10 in 10.0 mi NNE 12.7 mph 17.3 mph 0.02 in   Overcast
8:35 PM 48.2 °F - 44.6 °F 87% 30.10 in 10.0 mi NNE 13.8 mph 19.6 mph 0.04 in   Overcast
8:55 PM 48.2 °F - 42.8 °F 82% 30.10 in 10.0 mi NNE 11.5 mph 18.4 mph 0.06 in   Overcast
9:15 PM 48.2 °F - 42.8 °F 82% 30.11 in 10.0 mi NNE 11.5 mph 19.6 mph 0.01 in   Overcast
9:35 PM 46.4 °F 42.4 °F 42.8 °F 87% 30.11 in 10.0 mi NE 8.1 mph - 0.03 in   Overcast
9:55 PM 46.4 °F 42.9 °F 42.8 °F 87% 30.11 in 10.0 mi NNE 6.9 mph - 0.03 in   Overcast
10:15 PM 46.4 °F 42.9 °F 42.8 °F 87% 30.11 in 10.0 mi NNE 6.9 mph - N/A   Overcast
10:35 PM 48.2 °F - 42.8 °F 82% 30.11 in 10.0 mi NNE 9.2 mph 16.1 mph N/A   Overcast
10:55 PM 48.2 °F - 42.8 °F 82% 30.11 in 10.0 mi NNE 10.4 mph - N/A   Overcast
11:15 PM 48.2 °F - 41.0 °F 76% 30.12 in 10.0 mi NNE 10.4 mph - N/A   Overcast
11:35 PM 48.2 °F - 41.0 °F 76% 30.12 in 10.0 mi NNE 10.4 mph 16.1 mph N/A   Mostly Cloudy
11:55 PM 48.2 °F - 39.2 °F 71% 30.11 in 10.0 mi North 16.1 mph 20.7 mph N/A   Overcast